RH
18 19 21 19 15 15 18 21 22 16 18 32 48 51 52 52 48 41 57 64 70 76 80 83 82 83 87 92 92 91 87 86 87 69 77 67 65 74 77 74 72 74 77 80
21 24 18 19 16 17 18 24 24 22 22 34 44 43 45 50 58 63 60 66 76 84 85 79 84 88 93 93 91 90 89 89 78 85 87 74 76 78 80 80 77 76 80 82
23 20 17 19 20 20 26 25 27 23 22 27 30 36 47 46 56 70 77 69 79 81 85 81 87 95 89 91 96 93 87 82 90 90 75 78 81 81 77 80 81 80 81 83
22 18 18 20 22 22 29 23 23 22 32 34 34 32 46 53 74 84 93 92 87 86 87 90 93 92 96 97 98 96 96 96 92 83 79 83 81 82 84 88 86 83 83 85
23 23 21 21 24 23 24 24 35 34 35 40 36 41 46 60 66 94 96 96 97 94 92 92 94 93 96 97 98 96 95 87 82 82 84 85 88 90 90 83 85 86 82 82
28 24 22 25 24 23 27 31 36 48 45 47 49 53 52 66 66 91 96 96 95 97 98 96 91 87 91 94 95 90 83 80 81 81 83 87 87 88 85 84 84 87 80 81
29 29 26 25 27 27 27 38 50 50 55 52 57 64 63 56 58 83 98 99 98 96 93 88 90 87 80 77 73 67 75 79 78 81 85 87 90 92 94 93 88 93 90 92
42 37 30 25 30 32 35 35 48 54 60 49 53 68 56 74 86 89 94 89 81 85 88 87 82 79 77 72 74 74 78 82 84 85 87 90 92 93 93 94 94 95 95 94
43 40 30 30 35 32 40 40 42 52 67 63 60 64 55 69 74 79 66 70 80 78 74 73 71 73 71 72 77 80 76 82 87 87 89 91 92 94 95 95 96 94 94 90
45 43 36 36 35 37 44 40 55 64 67 66 64 70 73 70 63 67 72 82 78 75 72 70 71 70 72 69 78 81 86 90 91 89 90 88 91 92 93 95 94 93 94 92
51 49 38 41 47 58 52 56 63 65 69 73 76 67 67 59 60 71 76 78 78 77 73 69 73 69 68 76 78 81 86 91 91 91 92 92 90 90 92 92 90 93 93 93
62 60 59 47 44 45 48 62 69 83 68 77 81 76 63 58 62 67 68 69 76 68 72 76 68 74 78 80 78 86 90 92 91 92 92 91 91 92 92 92 92 92 93 92
47 57 62 54 41 37 58 58 65 72 76 73 78 67 58 60 63 64 75 69 67 76 84 74 77 81 82 88 90 88 91 91 90 91 92 91 92 93 93 93 92 92 92 91
58 60 53 65 51 53 66 60 60 70 86 76 66 71 74 77 76 72 75 77 78 72 66 72 76 86 91 90 91 92 91 90 90 91 92 92 92 93 93 93 93 92 91 91
54 58 66 57 53 64 65 62 63 67 71 79 75 75 80 78 76 72 73 75 68 80 76 74 86 92 92 94 92 90 90 89 91 92 91 91 92 91 91 93 93 92 92 90
67 68 80 71 63 62 62 61 63 63 65 61 63 82 80 73 68 65 64 76 80 72 74 79 84 88 93 93 94 94 92 92 93 93 90 90 89 89 92 92 92 92 92 92
60 77 77 73 68 60 70 68 61 63 66 67 75 72 75 68 74 74 80 72 74 78 79 84 90 95 95 94 94 95 94 93 93 91 86 86 87 87 90 88 88 93 96 95
75 78 84 86 72 74 77 64 58 70 77 72 73 70 67 68 80 84 76 84 85 82 89 94 96 96 94 92 94 94 93 91 90 88 87 86 87 86 86 87 92 96 97 98
71 87 94 89 92 81 70 76 82 80 79 80 75 78 78 77 74 81 85 84 90 94 95 97 96 94 94 93 92 94 90 88 87 87 88 88 87 85 87 91 96 97 96 96
81 82 87 87 98 99 93 75 74 78 92 85 88 86 78 84 96 88 92 88 91 92 95 96 94 92 93 90 94 91 87 86 86 85 89 88 88 86 90 94 96 96 95 94
93 94 95 99 99 89 81 75 74 89 81 90 82 84 83 88 91 93 91 92 92 94 95 93 94 96 93 92 92 91 90 87 86 89 88 88 88 90 92 94 95 96 96 95
92 95 96 96 95 89 80 76 82 77 87 83 85 89 90 90 94 94 94 94 95 95 92 91 95 94 89 90 92 92 94 89 88 88 85 89 91 84 85 92 95 95 95 95
89 88 90 87 87 85 87 86 85 82 82 86 84 87 90 94 97 96 81 97 96 93 94 92 93 92 90 88 87 89 89 87 86 88 90 89 88 91 93 92 92 92 91 93
78 79 86 78 84 86 83 82 81 79 80 82 85 90 90 97 80 80 87 96 94 92 93 92 92 89 90 82 80 86 86 87 88 93 93 91 91 93 91 89 87 88 98 99
72 75 88 90 92 83 80 80 81 76 85 87 88 90 95 88 80 92 94 93 94 94 93 91 93 92 86 83 81 90 90 90 89 93 89 91 94 96 96 89 94 98 98 100
77 77 87 83 81 81 84 82 79 85 88 89 89 95 96 96 97 94 91 92 93 94 92 91 85 83 82 81 87 91 93 90 93 91 90 97 97 96 96 96 97 97 98 98
Wind_Speed
4 6 3 7 5 4 2 1 2 4 5 7 4 6 12 9 9 6 6 6 6 6 4 9 11 9 9 7 7 3 5 1 2 2 4 4 4 2 2 2 2 4 3 3
7 4 5 4 4 4 3 3 5 4 5 7 3 7 5 11 6 5 2 9 12 9 8 11 13 8 7 6 5 3 4 5 3 3 3 3 2 2 2 2 3 4 5 5
4 4 2 5 4 7 2 3 2 4 4 5 3 5 7 5 7 10 10 5 6 9 11 11 11 9 8 8 8 6 3 4 4 7 3 2 2 2 3 3 2 3 5 5
2 5 3 6 3 4 2 2 2 3 4 2 3 5 6 7 10 11 9 9 9 10 11 10 11 10 7 7 8 5 4 7 6 3 4 4 3 3 2 2 2 4 4 6
4 6 5 6 3 0 3 3 2 2 2 3 7 4 7 4 5 5 6 5 6 7 10 10 9 7 6 4 4 3 5 2 5 3 4 2 2 2 2 2 5 4 4 5
2 4 4 1 1 3 3 1 6 4 3 3 3 4 5 3 1 2 3 5 6 8 9 11 11 9 6 5 3 4 3 4 6 6 5 4 5 5 5 6 6 5 5 5
5 3 5 3 5 5 9 7 5 6 6 5 4 2 7 4 4 4 6 5 6 9 12 12 11 10 9 9 7 5 7 5 6 4 5 6 5 4 4 5 5 6 4 4
2 6 4 6 2 4 3 7 6 5 4 6 3 4 5 3 6 9 7 7 11 11 9 10 8 6 5 7 8 7 7 6 7 6 6 4 5 3 4 4 5 4 3 4
2 4 5 3 3 2 2 2 1 6 3 2 3 2 2 5 6 7 8 10 9 9 9 8 6 5 6 7 8 9 9 7 6 6 5 5 5 5 4 6 5 4 5 5
2 2 2 6 5 4 4 2 4 4 1 4 5 4 5 5 6 6 7 8 7 5 6 6 5 5 3 6 7 8 8 6 6 6 5 5 6 5 5 5 6 6 6 4
2 3 7 3 4 2 6 5 5 3 4 3 3 6 3 6 6 9 7 6 6 5 4 4 5 5 8 6 6 6 6 6 6 6 5 5 5 6 5 5 6 6 5 5
1 4 2 5 3 3 2 3 4 5 5 1 3 8 5 6 8 9 10 8 3 6 8 6 7 7 6 6 5 6 5 6 5 5 5 6 6 6 6 6 6 5 6 5
3 2 4 10 8 5 4 2 3 3 3 4 3 7 4 7 8 6 7 6 5 5 4 5 6 5 5 5 6 6 5 5 5 5 6 6 6 5 6 6 6 5 5 5
7 3 7 6 8 4 5 5 3 4 3 4 7 4 1 6 6 6 5 4 4 2 2 4 5 5 5 5 5 5 6 5 6 6 6 6 6 6 6 6 6 5 5 5
4 2 3 4 5 2 4 5 5 2 4 4 7 1 3 4 5 5 4 2 5 4 4 5 5 5 5 5 6 6 6 7 6 7 6 6 6 5 5 5 5 5 4 4
3 2 1 3 2 5 1 6 3 4 3 3 5 5 0 3 4 4 9 11 4 1 3 4 6 7 7 6 6 6 7 8 7 6 6 6 5 5 5 5 5 5 5 5
2 5 3 5 3 3 4 4 4 3 6 2 4 3 1 2 3 1 3 2 2 4 5 7 7 6 6 6 6 8 8 8 6 6 6 6 5 4 4 5 6 6 6 4
6 5 3 3 4 1 1 6 8 7 4 3 4 3 1 2 1 1 3 3 4 5 7 6 5 6 6 5 7 6 5 5 5 6 5 5 5 5 5 6 6 5 4 5
3 5 3 3 2 2 3 2 2 1 3 2 1 4 3 2 2 1 3 4 4 5 5 5 5 5 6 7 6 6 6 6 5 6 7 7 4 4 6 6 6 5 4 4
5 5 5 2 2 3 2 3 5 3 4 4 1 5 6 3 2 3 2 5 6 6 4 5 6 5 6 7 6 5 5 6 6 8 7 5 4 5 5 5 5 4 3 5
4 4 3 3 3 4 3 3 2 4 6 1 1 3 3 1 3 1 4 4 4 4 6 6 6 6 7 7 5 7 6 6 7 7 6 5 5 4 4 4 3 4 5 5
3 2 1 1 1 3 3 2 2 3 2 3 3 2 2 2 3 3 3 4 5 6 6 6 6 7 8 6 5 6 6 6 6 5 4 4 4 5 4 4 5 6 7 7
1 5 4 6 5 2 2 1 2 1 4 2 3 3 3 4 4 3 5 5 5 6 6 5 5 8 7 5 4 5 6 5 6 5 5 4 4 3 3 5 6 5 7 6
0 2 2 3 1 1 2 3 3 4 5 4 4 4 4 5 4 3 4 4 5 5 6 5 7 6 7 7 6 5 6 5 4 5 5 4 4 5 4 4 4 5 5 6
4 3 4 2 0 1 1 3 5 7 6 6 5 3 4 4 4 3 2 4 5 6 5 5 6 5 6 6 7 7 7 5 5 4 4 4 3 4 5 4 3 4 2 3
3 6 5 6 6 4 3 7 6 6 4 4 4 4 3 3 2 0 2 3 4 7 6 6 6 6 7 6 7 7 7 6 5 5 5 4 4 4 4 4 4 5 3 7
Wind_Direction
1 55 286 273 187 172 194 145 288 282 347 80 3 40 13 353 45 57 136 100 117 112 92 102 116 94 84 68 82 63 126 63 330 19 69 278 274 353 354 329 13 20 348 344
22 6 283 245 136 103 92 74 331 299 7 90 333 37 340 30 16 341 247 165 153 137 127 121 112 89 64 90 124 46 18 14 340 313 241 243 311 298 303 333 355 2 357 356
115 276 3 80 64 76 42 124 275 238 4 38 4 347 357 7 20 14 26 117 77 126 121 113 97 96 114 77 13 71 1 285 252 242 273 326 358 344 349 346 348 1 351 342
270 348 34 50 86 127 12 260 322 304 54 271 22 267 335 354 6 24 20 67 88 100 96 99 107 109 89 103 179 155 229 262 256 333 337 360 313 310 276 290 320 323 347 330
285 0 42 55 349 329 234 47 52 10 91 56 345 80 263 1 8 0 0 52 86 111 116 112 99 114 125 119 223 202 236 345 303 340 349 344 325 267 291 309 336 337 341 337
43 311 57 292 12 26 18 54 45 53 92 43 287 114 284 299 193 167 46 51 78 90 88 81 65 47 15 340 340 333 109 37 23 41 34 44 30 344 358 346 350 344 340 335
347 355 320 39 28 9 43 45 339 350 3 230 310 55 241 293 13 148 137 99 68 57 65 68 58 49 37 29 34 61 48 37 23 20 23 19 9 353 345 343 336 330 323 312
76 329 18 339 131 234 283 147 162 245 217 262 330 249 256 57 80 88 74 64 64 61 65 67 59 58 46 42 24 18 17 11 7 2 353 345 358 346 338 335 312 285 284 286
57 306 318 47 313 53 334 254 179 109 27 40 258 295 352 88 81 86 82 72 67 73 68 64 55 48 37 25 28 8 3 353 349 345 346 344 338 337 318 304 289 288 287 285
165 347 338 304 22 27 66 167 3 9 247 270 292 279 233 183 163 118 103 102 104 97 93 90 64 31 49 34 14 3 359 342 330 334 338 334 320 310 295 289 285 285 279 279
90 99 292 8 36 338 357 10 30 114 122 194 291 266 216 225 169 140 118 122 128 120 116 105 85 47 27 5 359 342 326 318 320 325 312 311 307 303 298 290 288 285 295 297
356 130 285 265 300 231 68 119 112 108 296 213 176 267 335 160 136 133 141 145 105 55 37 8 21 20 358 340 323 313 326 318 310 311 308 299 298 307 303 298 294 299 296 300
180 25 19 348 355 1 51 354 125 116 86 227 161 276 45 78 91 76 98 105 84 60 30 348 344 349 342 326 327 317 307 308 308 307 310 312 311 316 316 307 308 309 312 303
82 118 151 189 227 206 306 317 344 140 151 238 233 248 133 52 78 88 88 88 83 305 345 289 315 334 323 308 305 317 323 318 306 311 324 316 314 315 309 311 323 322 311 305
97 184 190 259 261 270 258 338 330 100 284 183 321 67 103 131 128 131 139 125 197 199 267 323 314 314 308 327 339 335 315 308 315 319 313 308 317 319 326 336 328 319 323 318
9 229 163 278 15 14 41 6 71 37 5 66 32 44 48 94 102 151 181 208 207 169 308 335 347 346 339 331 319 309 312 314 318 310 303 308 322 329 335 335 330 339 344 358
156 139 105 262 350 337 12 14 71 77 31 31 49 327 328 131 144 224 294 253 82 11 356 359 341 318 313 314 319 315 312 310 314 312 314 323 326 338 333 339 352 356 348 341
150 117 104 236 10 330 248 27 93 98 59 74 77 64 239 255 334 29 27 88 35 11 2 335 318 316 314 302 300 292 292 309 325 324 325 329 334 326 349 9 360 348 355 356
105 109 82 123 139 343 261 27 322 212 251 221 299 331 311 40 8 242 66 55 41 6 325 301 299 298 302 303 306 305 315 324 328 337 335 329 332 350 9 2 354 3 358 359
60 81 110 86 85 262 282 292 328 188 301 209 343 325 336 79 327 277 28 33 2 331 314 305 310 309 315 309 311 318 315 320 327 327 320 327 356 25 18 359 359 345 343 348
11 7 66 106 225 248 241 225 355 105 248 151 30 38 9 258 215 347 48 12 338 311 315 326 337 310 288 298 321 327 327 337 320 320 330 11 43 46 21 7 3 355 355 1
115 42 217 87 237 304 1 314 234 205 16 90 63 40 39 64 64 53 31 350 334 335 330 330 322 312 308 318 320 318 314 310 330 333 9 40 45 37 15 4 6 4 360 0
62 185 196 171 222 271 323 347 39 132 112 66 72 34 62 56 37 22 348 334 327 323 317 309 312 312 311 329 339 330 319 340 354 10 36 46 39 21 12 5 3 9 2 354
74 122 133 63 213 133 79 70 61 62 93 78 63 68 64 80 42 38 32 342 332 316 310 303 304 313 325 330 342 341 346 356 28 38 38 23 12 352 358 2 1 4 360 347
201 118 140 280 181 112 194 103 121 94 91 90 68 69 102 97 74 44 346 319 304 305 300 302 318 330 322 343 15 10 6 18 35 26 27 17 7 3 355 1 0 353 340 353
177 179 165 223 204 151 179 147 127 126 132 127 114 87 82 111 113 262 304 300 303 309 317 344 357 352 359 16 27 17 19 28 28 24 17 7 1 0 5 5 2 30 351 0